Location: Casilda
(33.0440°S, 61.1680°W)
Time: 16:43:34
(UTC-03:00)

ISS - Pass Details

Date: 21 January 2021
Orbit: 418 x 421 km, 51.6° (Epoch: 27 January)

Event Time Altitude Azimuth Distance (km) Brightness Sun altitude
Exits shadow 05:16:46 - 359° (N) 1,794 -0.9 -12.0°
Reaches altitude 10° 05:17:43 10° 9° (N) 1,501 -1.2 -11.8°
Maximum altitude 05:20:03 18° 53° (NE) 1,131 -1.3 -11.4°
Drops below altitude 10° 05:22:24 10° 96° (E) 1,515 0.2 -11.0°
Sets 05:24:59 0° 116° (ESE) 2,387 2.3 -10.5°
